Location: Barcelona
(41.3829°N, 2.1774°E)
Time: 14:29:22
(UTC+00:00)

ISS - Pass Details

Date: 12 July 2024
Orbit: 410 x 424 km, 51.6° (Epoch: 14 July)

Event Time Altitude Azimuth Distance (km) Brightness Sun altitude
Rises 19:21:12 0° 219° (SW) 2,327 0.2 -0.2°
Reaches altitude 10° 19:23:19 10° 213° (SSW) 1,468 -0.9 -0.6°
Maximum altitude 19:26:29 46° 139° (SE) 561 -3.5 -1.1°
Drops below altitude 10° 19:29:41 10° 65° (ENE) 1,476 -1.3 -1.6°
Sets 19:31:49 0° 59° (ENE) 2,342 -0.2 -2.0°
